FW7308 Weather Reports


time (UTC)temp
C
wind
direction
speed
KPH
gust
KPH
rain 1hr
cm
rain 24hr
cm
rain mn
cm
humidity
%
barometer
mb
20260510233617 13 329 0.0 1.6 0.00 0.00 0.03 59 1015.8
20260510233118 14 330 3.2 4.8 0.00 0.00 0.03 53 1015.8
20260510232617 14 344 8.0 14.5 0.00 0.00 0.03 46 1015.4
20260510232117 15 336 6.4 8.0 0.00 0.00 0.03 46 1015.6
20260510231616 15 326 3.2 8.0 0.00 0.00 0.03 47 1015.4
20260510231117 15 327 3.2 3.2 0.00 0.00 0.03 52 1015.4
20260510230646 15 309 4.8 4.8 0.00 0.00 0.03 52 1015.4
20260510230147 15 331 1.6 3.2 0.00 0.00 0.03 51 1015.4
20260510225645 15 325 6.4 9.7 0.00 0.00 0.03 54 1015.4
20260510225144 15 322 1.6 3.2 0.00 0.00 0.03 53 1015.2
20260510224645 16 334 6.4 9.7 0.00 0.00 0.03 53 1015.4
20260510224145 16 332 3.2 8.0 0.00 0.00 0.03 54 1015.1
20260510223644 16 313 3.2 8.0 0.00 0.00 0.03 53 1015.1
20260510223145 16 330 1.6 3.2 0.00 0.00 0.03 51 1015.1
20260510222644 16 332 0.0 1.6 0.00 0.00 0.03 50 1014.7
20260510221642 17 343 8.0 11.3 0.00 0.00 0.03 47 1014.7
20260510221143 17 300 9.7 14.5 0.00 0.00 0.03 49 1014.7
20260510220643 17 3 8.0 12.9 0.00 0.00 0.03 50 1014.5
20260510220145 17 316 6.4 9.7 0.00 0.00 0.03 49 1014.5
20260510215644 17 356 6.4 11.3 0.00 0.00 0.03 48 1014.4
20260510215142 17 16 8.0 12.9 0.00 0.00 0.03 49 1014.4
20260510214641 17 338 6.4 9.7 0.00 0.00 0.03 50 1014.4
20260510214140 17 354 3.2 8.0 0.00 0.00 0.03 50 1014.7
20260510213641 17 316 9.7 12.9 0.00 0.00 0.03 50 1014.0
20260510213141 18 329 4.8 9.7 0.00 0.00 0.03 50 1014.0
20260510212641 18 323 1.6 4.8 0.00 0.00 0.03 53 1014.0
20260510211640 18 350 9.7 14.5 0.00 0.00 0.03 55 1014.0
20260510211239 18 327 9.7 14.5 0.00 0.00 0.03 55 1013.8
20260510210640 17 328 4.8 9.7 0.00 0.00 0.03 55 1014.0
20260510210238 17 324 9.7 16.1 0.00 0.00 0.03 55 1014.0
20260510205739 18 355 9.7 16.1 0.00 0.00 0.03 54 1014.0
20260510205238 18 321 11.3 20.9 0.00 0.00 0.03 54 1014.0
20260510204637 18 359 8.0 12.9 0.00 0.00 0.03 55 1014.0
20260510204136 18 155 6.4 9.7 0.00 0.00 0.03 55 1013.7
20260510203635 18 319 3.2 4.8 0.00 0.00 0.03 58 1013.7
20260510203137 17 329 4.8 8.0 0.00 0.00 0.03 59 1013.7
20260510202636 18 340 6.4 11.3 0.00 0.00 0.03 57 1014.0
20260510202236 18 326 4.8 12.9 0.00 0.00 0.03 58 1013.7
20260510201634 18 315 3.2 8.0 0.00 0.00 0.03 58 1013.7
20260510201135 17 325 3.2 4.8 0.00 0.00 0.03 59 1014.0
20260510200634 17 330 11.3 16.1 0.00 0.00 0.03 60 1014.0
20260510200134 18 327 9.7 14.5 0.00 0.00 0.03 62 1014.0
20260510195633 17 187 3.2 4.8 0.00 0.00 0.03 64 1013.8
20260510195134 17 302 8.0 12.9 0.00 0.00 0.03 62 1014.0
20260510194633 17 324 4.8 9.7 0.00 0.00 0.03 64 1014.0
20260510194132 17 323 4.8 4.8 0.00 0.00 0.03 65 1014.0
20260510193634 17 350 11.3 22.5 0.00 0.00 0.03 65 1014.0
20260510193133 18 348 11.3 20.9 0.00 0.00 0.03 64 1014.0
20260510192632 18 356 4.8 9.7 0.00 0.00 0.03 65 1014.0
20260510192131 17 290 8.0 14.5 0.00 0.00 0.03 66 1014.0
20260510191630 17 298 11.3 12.9 0.00 0.00 0.03 66 1014.0
20260510191132 18 334 6.4 12.9 0.00 0.00 0.03 67 1014.4
20260510190731 17 305 6.4 11.3 0.00 0.00 0.03 68 1014.0
20260510190131 17 321 8.0 11.3 0.00 0.00 0.03 68 1014.0
20260510185629 18 13 9.7 16.1 0.00 0.00 0.03 66 1014.0
20260510185133 18 263 8.0 11.3 0.00 0.00 0.03 67 1014.0
20260510184129 18 337 6.4 9.7 0.00 0.00 0.03 68 1014.0
20260510183628 16 59 3.2 8.0 0.00 0.00 0.03 72 1014.0
20260510183129 17 348 1.6 4.8 0.00 0.00 0.03 70 1014.0
20260510182128 17 347 6.4 12.9 0.00 0.00 0.03 70 1014.0
20260510181627 17 327 4.8 8.0 0.00 0.00 0.03 70 1014.0
20260510180729 17 324 6.4 9.7 0.00 0.00 0.03 69 1014.0
20260510180127 18 16 6.4 11.3 0.00 0.00 0.03 69 1013.7
20260510175627 17 342 3.2 8.0 0.00 0.00 0.03 71 1013.7
20260510175125 17 297 3.2 4.8 0.00 0.00 0.03 72 1013.8
20260510174624 17 306 14.5 17.7 0.00 0.00 0.03 71 1014.0
20260510174125 17 338 11.3 16.1 0.00 0.00 0.03 72 1014.0
20260510173624 17 349 14.5 17.7 0.00 0.00 0.03 72 1014.0
20260510173125 17 113 4.8 9.7 0.00 0.00 0.03 72 1014.0
20260510172726 17 254 3.2 4.8 0.00 0.00 0.03 74 1014.0
20260510172123 16 80 4.8 8.0 0.00 0.00 0.03 76 1013.8
20260510161118 14 70 3.2 4.8 0.00 0.00 0.03 92 1013.7
20260510160620 14 226 6.4 9.7 0.00 0.00 0.03 92 1014.0
20260510160119 14 129 9.7 14.5 0.00 0.00 0.03 91 1014.0
20260510155617 14 94 4.8 9.7 0.00 0.00 0.03 92 1013.7
20260510155116 13 320 1.6 3.2 0.00 0.00 0.03 94 1014.0
20260510154615 13 347 1.6 1.6 0.00 0.00 0.03 96 1014.0
20260510154116 12 109 4.8 8.0 0.00 0.00 0.03 96 1014.0
20260510153645 12 138 6.4 9.7 0.00 0.00 0.03 96 1014.0
20260510153145 12 322 3.2 3.2 0.00 0.00 0.03 97 1014.0
20260510152644 12 134 4.8 9.7 0.00 0.00 0.03 97 1014.0
20260510152145 12 210 6.4 12.9 0.00 0.00 0.03 98 1013.7
20260510151644 12 40 4.8 8.0 0.00 0.00 0.03 99 1013.7
20260510151143 11 23 3.2 4.8 0.00 0.00 0.03 99 1013.3
20260510150643 11 148 9.7 14.5 0.00 0.00 0.03 99 1013.5
20260510150144 11 98 4.8 9.7 0.00 0.00 0.03 99 1013.3
20260510145643 11 96 4.8 8.0 0.00 0.00 0.03 99 1013.3
20260510145142 11 77 6.4 8.0 0.00 0.00 0.03 99 1013.7
20260510144647 10 81 4.8 8.0 0.00 0.00 0.03 99 1013.7
20260510144145 10 125 4.8 8.0 0.00 0.00 0.03 99 1013.7
20260510143642 10 93 4.8 9.7 0.00 0.00 0.03 99 1013.5
20260510143141 10 29 1.6 4.8 0.00 0.00 0.03 99 1013.7
20260510142640 10 97 6.4 9.7 0.00 0.00 0.03 99 1013.7
20260510142140 10 138 8.0 12.9 0.00 0.00 0.03 99 1013.7
20260510141641 10 177 3.2 4.8 0.00 0.00 0.03 99 1013.7
20260510141140 10 128 6.4 12.9 0.00 0.00 0.03 99 1013.3
20260510140639 10 265 4.8 4.8 0.00 0.00 0.03 99 1013.3
20260510140140 10 166 6.4 8.0 0.00 0.00 0.03 99 1013.5
20260510135639 10 149 8.0 9.7 0.00 0.00 0.03 99 1013.3
20260510135140 10 112 6.4 8.0 0.00 0.00 0.03 99 1013.3
20260510134639 10 18 3.2 4.8 0.00 0.00 0.03 99 1013.7
20260510134138 10 203 4.8 8.0 0.00 0.00 0.03 99 1013.3
20260510133739 10 141 4.8 8.0 0.00 0.00 0.03 99 1013.3
20260510133137 10 133 9.7 14.5 0.00 0.00 0.03 99 1013.7
20260510132638 10 324 1.6 1.6 0.00 0.00 0.03 99 1013.7
20260510132137 10 110 8.0 9.7 0.00 0.00 0.03 99 1013.7
20260510131636 10 129 8.0 11.3 0.00 0.00 0.03 99 1013.7
20260510131135 10 145 4.8 8.0 0.00 0.00 0.03 99 1013.7
20260510130137 10 209 8.0 11.3 0.00 0.00 0.03 99 1013.5
20260510125635 10 201 8.0 9.7 0.00 0.00 0.03 99 1013.3
20260510125134 9 163 11.3 14.5 0.00 0.00 0.03 99 1013.3
20260510124635 9 170 6.4 9.7 0.00 0.00 0.03 99 1013.3
20260510124236 10 147 9.7 12.9 0.00 0.00 0.03 99 1013.5
20260510123634 9 158 8.0 9.7 0.00 0.00 0.03 99 1013.7
20260510123133 9 270 4.8 8.0 0.00 0.00 0.03 99 1013.3
20260510122732 9 165 9.7 14.5 0.00 0.00 0.03 99 1013.3
20260510122134 9 114 6.4 9.7 0.00 0.00 0.03 99 1013.3
20260510121132 9 158 8.0 11.3 0.00 0.00 0.03 99 1013.3
20260510120631 9 163 6.4 8.0 0.00 0.00 0.03 99 1013.3
20260510120134 9 163 9.7 11.3 0.00 0.00 0.03 99 1013.3
20260510115631 9 144 8.0 12.9 0.00 0.00 0.03 99 1013.3
20260510115131 8 220 6.4 9.7 0.00 0.00 0.03 99 1013.3
20260510114131 8 37 3.2 4.8 0.00 0.00 0.03 99 1013.3
20260510113631 8 22 3.2 4.8 0.00 0.00 0.03 99 1013.3
20260510113132 8 136 6.4 11.3 0.00 0.00 0.03 99 1013.3
20260510112733 8 104 4.8 9.7 0.00 0.00 0.03 99 1013.3
20260510112129 8 143 8.0 9.7 0.00 0.00 0.03 99 1013.3
20260510111628 8 29 3.2 4.8 0.00 0.00 0.03 99 1013.3
20260510111130 8 102 4.8 9.7 0.00 0.00 0.03 99 1013.1
20260510110627 8 109 4.8 8.0 0.00 0.00 0.03 99 1013.0
20260510110130 8 317 4.8 8.0 0.00 0.00 0.03 99 1013.0
20260510105627 8 200 8.0 11.3 0.00 0.00 0.03 99 1013.0
20260510105127 8 115 14.5 14.5 0.00 0.00 0.03 99 1012.6
20260510104629 8 316 4.8 4.8 0.00 0.00 0.03 99 1012.6
20260510104127 8 312 3.2 3.2 0.00 0.00 0.03 99 1012.6
20260510103626 8 150 8.0 11.3 0.00 0.00 0.03 99 1012.6
20260510103128 8 62 4.8 4.8 0.00 0.00 0.03 99 1012.6
20260510102626 8 239 4.8 8.0 0.00 0.00 0.03 99 1012.3
20260510102126 8 154 4.8 9.7 0.00 0.00 0.03 99 1012.3
20260510101626 8 349 3.2 9.7 0.00 0.00 0.03 99 1012.3
20260510101124 8 164 9.7 17.7 0.00 0.00 0.03 99 1011.9
20260510100623 8 238 6.4 11.3 0.00 0.00 0.03 99 1011.7
20260510100225 8 124 8.0 14.5 0.00 0.00 0.03 99 1011.6
20260510095625 8 28 4.8 8.0 0.00 0.00 0.03 99 1011.9
20260510095223 8 158 8.0 11.3 0.00 0.00 0.03 99 1011.6
20260510094622 8 163 8.0 11.3 0.00 0.00 0.03 99 1011.6
20260510094121 8 282 6.4 9.7 0.00 0.00 0.03 99 1011.6
20260510093622 8 135 4.8 8.0 0.00 0.00 0.03 99 1011.7
20260510093123 8 186 6.4 9.7 0.00 0.00 0.03 99 1011.7
20260510092622 8 140 9.7 11.3 0.00 0.00 0.03 99 1011.6
20260510092120 8 296 3.2 4.8 0.00 0.00 0.03 99 1011.6
20260510091621 8 136 6.4 8.0 0.00 0.00 0.03 99 1011.4
20260510091120 8 215 6.4 12.9 0.00 0.00 0.03 99 1011.6
20260510090619 8 156 3.2 9.7 0.00 0.00 0.03 99 1011.6
20260510090121 8 5 3.2 4.8 0.00 0.00 0.03 99 1011.6
20260510085119 8 185 9.7 12.9 0.00 0.00 0.03 99 1011.2
20260510084620 8 42 3.2 8.0 0.00 0.00 0.03 99 1011.6
20260510084117 8 118 4.8 9.7 0.00 0.00 0.03 99 1011.9
20260510083616 8 135 6.4 11.3 0.00 0.00 0.03 99 1011.9
20260510083118 8 319 1.6 4.8 0.00 0.00 0.03 99 1011.9
20260510082617 8 343 0.0 1.6 0.00 0.00 0.03 99 1011.9
20260510082118 8 227 4.8 4.8 0.00 0.00 0.03 99 1012.3
20260510081617 8 123 4.8 8.0 0.00 0.00 0.03 99 1012.3
20260510081145 8 58 4.8 8.0 0.00 0.00 0.03 99 1012.3
20260510080646 8 107 6.4 8.0 0.00 0.00 0.03 99 1011.9
20260510080145 8 8 3.2 4.8 0.00 0.00 0.03 99 1011.9
20260510075645 8 8 1.6 3.2 0.00 0.00 0.03 99 1011.9
20260510075144 8 340 3.2 3.2 0.00 0.00 0.03 99 1012.3
20260510074645 8 354 3.2 3.2 0.00 0.00 0.03 99 1012.3
20260510074144 8 21 3.2 4.8 0.00 0.00 0.03 99 1011.9
20260510073744 8 39 4.8 8.0 0.00 0.00 0.03 99 1011.9
20260510073143 8 306 3.2 3.2 0.00 0.00 0.03 99 1011.9
20260510072644 8 28 3.2 4.8 0.00 0.00 0.03 99 1011.9
20260510072143 8 314 1.6 3.2 0.00 0.00 0.03 99 1011.9
20260510071642 8 204 1.6 3.2 0.00 0.00 0.03 99 1011.9
20260510071144 8 316 0.0 1.6 0.00 0.00 0.03 99 1011.9
20260510070141 8 2 3.2 3.2 0.00 0.00 0.03 99 1011.6
20260510065741 8 325 3.2 4.8 0.00 0.00 0.03 99 1011.9
20260510065140 8 330 1.6 1.6 0.00 0.00 0.03 99 1011.9
20260510064741 8 17 3.2 4.8 0.00 0.00 0.03 99 1011.9
20260510063639 8 359 1.6 3.2 0.00 0.00 0.03 99 1011.7
20260510063138 8 5 4.8 4.8 0.00 0.00 0.03 99 1011.9
20260510062639 8 7 3.2 3.2 0.00 0.00 0.03 99 1011.9
20260510062139 8 261 4.8 8.0 0.00 0.00 0.03 99 1011.9
20260510061638 8 352 1.6 1.6 0.00 0.00 0.03 99 1012.1
20260510061137 8 297 1.6 3.2 0.00 0.00 0.03 99 1011.9
20260510060636 8 28 3.2 3.2 0.00 0.00 0.03 99 1011.9
20260510060137 8 210 3.2 8.0 0.00 0.00 0.03 99 1011.9
20260510055638 8 331 3.2 3.2 0.00 0.00 0.03 99 1012.3
20260510055136 8 332 3.2 4.8 0.00 0.00 0.03 99 1011.9
20260510054637 8 356 1.6 3.2 0.00 0.00 0.03 99 1011.9
20260510054136 8 20 3.2 3.2 0.00 0.00 0.03 99 1011.9
20260510053635 8 2 1.6 3.2 0.00 0.00 0.03 99 1011.9
20260510053137 8 0.0 0.0 0.00 0.00 0.03 99 1012.3
20260510052635 8 0.0 0.0 0.00 0.00 0.03 99 1011.9
20260510052237 8 0.0 0.0 0.00 0.00 0.03 99 1012.3
20260510051634 8 0.0 0.0 0.00 0.00 0.03 99 1012.3
20260510051133 8 0.0 0.0 0.00 0.00 0.03 99 1012.3
20260510050632 8 347 0.0 1.6 0.00 0.00 0.03 99 1012.3
20260510050234 8 337 1.6 3.2 0.00 0.00 0.03 99 1012.3
20260510045636 8 356 0.0 1.6 0.00 0.00 0.03 99 1012.1
20260510045132 8 348 1.6 1.6 0.00 0.00 0.03 99 1012.3
20260510044631 8 14 1.6 3.2 0.00 0.00 0.03 99 1012.3
20260510044132 8 348 1.6 1.6 0.00 0.00 0.03 99 1012.4
20260510043632 8 351 1.6 1.6 0.00 0.00 0.03 99 1012.3
20260510043131 8 354 1.6 1.6 0.00 0.00 0.03 99 1012.3
20260510042630 8 41 3.2 4.8 0.00 0.00 0.00 99 1012.6
20260510042129 8 334 1.6 3.2 0.00 0.00 0.00 99 1012.3
20260510041630 8 16 3.2 3.2 0.00 0.00 0.00 99 1012.3
20260510041130 8 358 1.6 3.2 0.00 0.00 0.00 99 1012.6
20260510040629 8 347 1.6 1.6 0.00 0.00 0.00 99 1012.3
20260510040128 8 350 1.6 1.6 0.00 0.00 0.00 99 1012.3
20260510035730 8 35 3.2 4.8 0.00 0.00 1.22 99 1012.3
20260510035128 8 18 3.2 4.8 0.00 0.00 1.22 99 1012.6
20260510034628 8 11 1.6 3.2 0.00 0.00 1.22 99 1012.4
20260510034127 8 30 4.8 4.8 0.00 0.00 1.22 99 1012.6
20260510033628 8 81 6.4 8.0 0.00 0.00 1.22 99 1012.3
20260510033127 8 357 1.6 1.6 0.00 0.00 1.22 99 1012.6
20260510032626 8 31 3.2 4.8 0.00 0.00 1.22 99 1012.3
20260510032125 8 360 1.6 3.2 0.00 0.00 1.22 99 1012.3
20260510031625 8 302 3.2 4.8 0.00 0.00 1.22 99 1012.3
20260510031126 8 340 1.6 1.6 0.00 0.00 1.22 99 1012.6
20260510030625 8 51 4.8 4.8 0.00 0.00 1.22 99 1012.3
20260510030124 8 354 1.6 1.6 0.00 0.00 1.22 99 1012.6
20260510025625 8 341 1.6 1.6 0.00 0.00 1.22 99 1012.4
20260510025126 8 287 3.2 4.8 0.00 0.00 1.22 99 1012.3
20260510024626 8 63 3.2 4.8 0.00 0.00 1.22 99 1012.3
20260510023625 8 48 3.2 4.8 0.00 0.00 1.22 99 1012.6
20260510023124 8 32 3.2 3.2 0.00 0.00 1.22 99 1012.6
20260510022623 8 351 1.6 1.6 0.00 0.00 1.22 99 1013.0
20260510022122 8 14 3.2 4.8 0.00 0.00 1.22 99 1013.0
20260510021623 8 346 1.6 3.2 0.00 0.00 1.22 99 1013.0
20260510021122 8 15 3.2 4.8 0.00 0.00 1.22 99 1013.0
20260510020120 8 360 1.6 3.2 0.00 0.00 1.22 99 1013.0
20260510015622 8 345 1.6 1.6 0.00 0.00 1.22 99 1013.0
20260510015121 8 349 1.6 1.6 0.00 0.00 1.22 99 1013.0
20260510014620 8 347 1.6 1.6 0.00 0.00 1.22 99 1013.0
20260510013619 8 358 3.2 3.2 0.00 0.00 1.22 99 1013.0
20260510013120 8 350 1.6 1.6 0.00 0.00 1.22 99 1013.0
20260510012619 8 348 3.2 3.2 0.00 0.00 1.22 99 1013.0
20260510012118 8 65 4.8 9.7 0.00 0.00 1.22 99 1012.6
20260510011619 8 20 3.2 4.8 0.00 0.00 1.22 99 1013.0
20260510011118 8 356 1.6 1.6 0.00 0.00 1.22 99 1012.6
20260510010618 8 326 0.0 1.6 0.00 0.00 1.22 99 1013.0
20260510010220 8 326 3.2 3.2 0.00 0.00 1.22 99 1012.6
20260510005616 8 345 1.6 1.6 0.00 0.00 1.22 99 1012.6
20260510004646 8 342 1.6 3.2 0.00 0.00 1.22 99 1012.6
20260510004146 8 5 3.2 3.2 0.00 0.00 1.22 99 1012.6
20260510003646 8 46 3.2 4.8 0.00 0.00 1.22 99 1012.6
20260510003144 8 202 4.8 4.8 0.00 0.00 1.22 99 1012.6
20260510002647 8 349 1.6 3.2 0.00 0.00 1.22 99 1012.4
20260510002144 8 349 1.6 1.6 0.00 0.00 1.22 99 1012.3
20260510001643 8 128 6.4 8.0 0.00 0.00 1.22 99 1012.3
20260510001143 8 42 3.2 4.8 0.00 0.00 1.22 99 1012.3
20260510000645 8 193 6.4 9.7 0.00 0.00 1.22 99 1012.6
20260510000143 8 135 6.4 8.0 0.00 0.00 1.22 99 1012.3
20260509235644 8 294 3.2 4.8 0.00 0.00 1.22 99 1012.3
20260509235143 8 96 3.2 8.0 0.00 0.00 1.22 99 1012.3
20260509234646 7 48 3.2 4.8 0.00 0.00 1.22 99 1012.3
20260509234142 7 264 4.8 4.8 0.00 0.00 1.22 99 1012.3